Danville, KY

4:05 PM EDT on September 25, 2017 (GMT -0400)
Powell

Weather History for KDVK - May, 2014

Change the Weather History Date:

Friday, May 2, 2014

  Actual Average (KLEX) Record (KLEX)
Temperature  
Mean Temperature 48 °F -  
Max Temperature 60 °F 70 °F 88 °F (1959)
Min Temperature 37 °F 48 °F 33 °F (1961)
Degree Days  
Heating Degree Days 16    
Moisture  
Dew Point 40 °F    
Average Humidity 63    
Maximum Humidity 100    
Minimum Humidity 42    
Precipitation  
Precipitation 0.00 in - - ()
Sea Level Pressure  
Sea Level Pressure 29.95 in    
Wind  
Wind Speed 4 mph (West)    
Max Wind Speed 13 mph    
Max Gust Speed 18 mph    
Visibility 10 miles    
Events      
Averages and records for this station are not official NWS values.
T = Trace of Precipitation, MM = Missing Value Source: NWS Daily Summary

Daily Weather History Graph

Daily Weather History Graph

Search for Another Location

Airport or City:

Trip Planner

Search our weather history database for the weather conditions in past years. The results will help you decide how hot, cold, wet, or windy it might be!

Date:

Astronomy

May. 02, 2014 Rise Set
Actual Time 6:42 AM EDT 8:30 PM EDT
Civil Twilight 6:14 AM EDT 8:58 PM EDT
Nautical Twilight 5:40 AM EDT 9:32 PM EDT
Astronomical Twilight 5:03 AM EDT 10:09 PM EDT
Moon 9:20 AM EDT (5/2) 11:50 PM EDT (5/2)
Length of Visible Light 14h 44m
Length of Day
13h 47m
Waxing Crescent, 12% of the Moon is Illuminated
May 2
Waxing Crescent
May 6
First Quarter
May 14
Full
May 21
Last Quarter
May 28
New

Hourly Weather History & Observations

Time (EDT) Temp. Windchill Dew Point Humidity Pressure Visibility Wind Dir Wind Speed Gust Speed Precip Events Conditions
12:20 AM 44.6 °F - 39.2 °F 81% 29.96 in 10.0 mi Calm Calm - N/A   Mostly Cloudy
12:35 AM 44.6 °F - 39.2 °F 81% 29.96 in 10.0 mi Calm Calm - N/A   Overcast
12:55 AM 44.6 °F - 37.4 °F 76% 29.96 in 10.0 mi Calm Calm - N/A   Overcast
1:20 AM 46.4 °F 45.2 °F 39.2 °F 76% 29.97 in 10.0 mi West 3.5 mph - N/A   Overcast
1:40 AM 46.4 °F 45.2 °F 37.4 °F 71% 29.97 in 10.0 mi West 3.5 mph - N/A   Overcast
1:50 AM 48.2 °F - 37.4 °F 66% 29.97 in 10.0 mi WNW 5.8 mph - N/A   Overcast
2:15 AM 50.0 °F - 37.4 °F 62% 29.96 in 10.0 mi NW 4.6 mph - N/A   Overcast
3:20 AM 44.6 °F - 37.4 °F 76% 29.95 in 10.0 mi Calm Calm - N/A   Clear
3:35 AM 42.8 °F - 37.4 °F 81% 29.95 in 10.0 mi Calm Calm - N/A   Clear
4:00 AM 42.8 °F - 37.4 °F 81% 29.95 in 10.0 mi Calm Calm - N/A   Clear
4:15 AM 41.0 °F - 37.4 °F 87% 29.95 in 10.0 mi Calm Calm - N/A   Clear
5:50 AM 39.2 °F - 37.4 °F 93% 29.95 in 10.0 mi Calm Calm - N/A   Clear
7:20 AM 37.4 °F - 37.4 °F 100% 29.97 in 10.0 mi Calm Calm - N/A   Clear
7:35 AM 39.2 °F 37.0 °F 37.4 °F 93% 29.97 in 10.0 mi SSW 3.5 mph - N/A   Clear
7:55 AM 41.0 °F 38.0 °F 39.2 °F 93% 29.98 in 10.0 mi SSW 4.6 mph - N/A   Clear
8:15 AM 44.6 °F 43.1 °F 41.0 °F 87% 29.98 in 10.0 mi SSW 3.5 mph - N/A   Clear
8:35 AM 46.4 °F 45.2 °F 41.0 °F 81% 29.98 in 10.0 mi SSW 3.5 mph - N/A   Clear
8:55 AM 50.0 °F - 42.8 °F 76% 29.98 in 10.0 mi SW 5.8 mph - N/A   Clear
9:15 AM 51.8 °F - 42.8 °F 71% 29.98 in 10.0 mi SSW 4.6 mph - N/A   Clear
9:35 AM 53.6 °F - 41.0 °F 62% 29.97 in 10.0 mi SSW 4.6 mph - N/A   Clear
9:55 AM 53.6 °F - 41.0 °F 62% 29.97 in 10.0 mi SW 5.8 mph - N/A   Clear
10:10 AM 55.4 °F - 37.4 °F 51% 29.97 in 10.0 mi West 4.6 mph - N/A   Clear
10:35 AM 55.4 °F - 37.4 °F 51% 29.96 in 10.0 mi WSW 3.5 mph - N/A   Clear
10:55 AM 55.4 °F - 41.0 °F 58% 29.96 in 10.0 mi Calm Calm - N/A   Mostly Cloudy
11:15 AM 59.0 °F - 41.0 °F 51% 29.96 in 10.0 mi Calm Calm - N/A   Overcast
11:35 AM 59.0 °F - 39.2 °F 48% 29.97 in 10.0 mi West 3.5 mph - N/A   Overcast
11:55 AM 59.0 °F - 41.0 °F 51% 29.96 in 10.0 mi West 8.1 mph - N/A   Mostly Cloudy
12:15 PM 59.0 °F - 41.0 °F 51% 29.96 in 10.0 mi SW 9.2 mph - N/A   Overcast
12:35 PM 55.4 °F - 39.2 °F 54% 29.95 in 10.0 mi SW 6.9 mph - N/A   Overcast
1:15 PM 59.0 °F - 41.0 °F 51% 29.95 in 10.0 mi WSW 3.5 mph - N/A   Overcast
1:35 PM 59.0 °F - 37.4 °F 45% 29.93 in 10.0 mi WNW 9.2 mph - N/A   Overcast
1:55 PM 59.0 °F - 37.4 °F 45% 29.94 in 10.0 mi West 8.1 mph - N/A   Overcast
2:15 PM 60.8 °F - 41.0 °F 48% 29.93 in 10.0 mi WSW 8.1 mph - N/A   Overcast
2:35 PM 60.8 °F - 37.4 °F 42% 29.92 in 10.0 mi WNW 10.4 mph 18.4 mph N/A   Overcast
2:55 PM 60.8 °F - 39.2 °F 45% 29.92 in 10.0 mi NW 8.1 mph - N/A   Overcast
3:15 PM 60.8 °F - 41.0 °F 48% 29.91 in 10.0 mi West 5.8 mph - N/A   Overcast
3:30 PM 60.8 °F - 41.0 °F 48% 29.92 in 10.0 mi WNW 9.2 mph - N/A   Overcast
3:55 PM 60.8 °F - 39.2 °F 45% 29.91 in 10.0 mi WNW 9.2 mph - N/A   Overcast
4:15 PM 60.8 °F - 39.2 °F 45% 29.91 in 10.0 mi WNW 10.4 mph 16.1 mph N/A   Overcast
4:35 PM 59.0 °F - 41.0 °F 51% 29.91 in 10.0 mi NNW 10.4 mph - N/A   Overcast
5:00 PM 59.0 °F - 41.0 °F 51% 29.91 in 10.0 mi NW 9.2 mph - N/A   Overcast
5:15 PM 59.0 °F - 41.0 °F 51% 29.91 in 10.0 mi NW 10.4 mph - N/A   Overcast
5:35 PM 59.0 °F - 41.0 °F 51% 29.91 in 10.0 mi NW 9.2 mph - N/A   Overcast
5:55 PM 59.0 °F - 41.0 °F 51% 29.92 in 10.0 mi NW 12.7 mph 18.4 mph N/A   Overcast
6:15 PM 59.0 °F - 41.0 °F 51% 29.92 in 10.0 mi NW 9.2 mph - N/A   Overcast
6:50 PM 59.0 °F - 41.0 °F 51% 29.92 in 10.0 mi WNW 10.4 mph - N/A   Overcast
7:35 PM 59.0 °F - 41.0 °F 51% 29.92 in 1.8 mi West 8.1 mph - N/A   Haze
8:00 PM 55.4 °F - 41.0 °F 58% 29.92 in 10.0 mi West 6.9 mph - N/A   Clear
8:15 PM 55.4 °F - 41.0 °F 58% 29.93 in 10.0 mi West 4.6 mph - N/A   Clear
8:35 PM 53.6 °F - 41.0 °F 62% 29.93 in 10.0 mi WSW 3.5 mph - N/A   Clear
8:55 PM 51.8 °F - 41.0 °F 67% 29.93 in 10.0 mi West 3.5 mph - N/A   Clear
9:20 PM 51.8 °F - 41.0 °F 67% 29.93 in 10.0 mi Calm Calm - N/A   Scattered Clouds
9:35 PM 50.0 °F - 41.0 °F 71% 29.93 in 10.0 mi Calm Calm - N/A   Scattered Clouds
9:55 PM 50.0 °F - 41.0 °F 71% 29.94 in 10.0 mi West 3.5 mph - N/A   Clear
10:20 PM 50.0 °F - 41.0 °F 71% 29.95 in 10.0 mi West 3.5 mph - N/A   Clear
10:35 PM 48.2 °F - 41.0 °F 76% 29.95 in 10.0 mi Calm Calm - N/A   Clear